Hourly Data Report for December 22, 2002

TORONTO CITY
ONTARIO

43°40'00.000" N
79°24'00.000" W
112.50 m
6158355
71508
XTO

Download Data

Hourly Data (December 2002)
Hourly Data Report for December 22, 2002
TIME
LST
Temp Definition
°C
Dew Point Definition
°C
Rel Hum Definition
%
Precip. Amount Definition
mm

Wind Dir Definition
10's deg

Wind Spd Definition
km/h
Visibility Definition
km
Stn Press Definition
kPa
Hmdx Definition


Wind Chill Definition


Weather Definition


00:00 1.7 -4.5 63   LegendMM LegendMM LegendMM 98.93     LegendNANA
01:00 1.8 -3.8 66   LegendMM LegendMM LegendMM 98.93     LegendNANA
02:00 1.8 -4.0 65   LegendMM LegendMM LegendMM 98.88     LegendNANA
03:00 1.8 -4.0 65   LegendMM LegendMM LegendMM 98.89     LegendNANA
04:00 1.7 -3.9 66   LegendMM LegendMM LegendMM 98.82     LegendNANA
05:00 1.7 -3.9 66   LegendMM LegendMM LegendMM 98.75     LegendNANA
06:00 1.0 -3.8 70   LegendMM LegendMM LegendMM 98.72     LegendNANA
07:00 0.2 -3.6 76   LegendMM LegendMM LegendMM 98.72     LegendNANA
08:00 0.1 -3.5 77   LegendMM LegendMM LegendMM 98.68     LegendNANA
09:00 0.4 -3.4 76   LegendMM LegendMM LegendMM 98.64     LegendNANA
10:00 1.5 -3.3 70   LegendMM LegendMM LegendMM 98.66     LegendNANA
11:00 2.6 -3.4 65   LegendMM LegendMM LegendMM 98.63     LegendNANA
12:00 2.1 -2.9 69   LegendMM LegendMM LegendMM 98.62     LegendNANA
13:00 2.0 -2.8 70   LegendMM LegendMM LegendMM 98.63     LegendNANA
14:00 1.9 -3.5 67   LegendMM LegendMM LegendMM 98.67     LegendNANA
15:00 1.8 -3.2 69   LegendMM LegendMM LegendMM 98.74     LegendNANA
16:00 1.8 -3.4 68   LegendMM LegendMM LegendMM 98.85     LegendNANA
17:00 1.5 -3.8 68   LegendMM LegendMM LegendMM 98.95     LegendNANA
18:00 1.7 -3.7 67   LegendMM LegendMM LegendMM 99.02     LegendNANA
19:00 1.8 -3.4 68   LegendMM LegendMM LegendMM 99.11     LegendNANA
20:00 1.7 -3.7 67   LegendMM LegendMM LegendMM 99.19     LegendNANA
21:00 1.6 -4.2 65   LegendMM LegendMM LegendMM 99.24     LegendNANA
22:00 1.5 -4.0 67   LegendMM LegendMM LegendMM 99.30     LegendNANA
23:00 1.2 -4.3 67   LegendMM LegendMM LegendMM 99.32     LegendNANA

Notes on Data Quality.

Legend

  • E = Estimated
  • M = Missing
  • NA = Not Available*
  • [empty] = Indicates an unobserved value
Date modified: